| time (UTC) | temp C | wind direction | speed KPH | gust KPH | rain 1hr cm | rain 24hr cm | rain mn cm | humidity % | barometer mb |
| 20260901091508 | 18 | 173 | 0.0 | 0.0 | 0.00 | 0.00 | 0.00 | 45 | 1006.8 |
| 20260901090019 | 18 | 173 | 0.0 | 0.0 | 0.00 | 0.00 | 0.00 | 47 | 1006.7 |
| 20260901084531 | 18 | 173 | 0.0 | 0.0 | 0.00 | 0.00 | 0.00 | 46 | 1006.9 |
| 20260901083018 | 18 | 173 | 0.0 | 0.0 | 0.00 | 0.00 | 0.00 | 45 | 1007.0 |
| 20260901081515 | 18 | 173 | 0.0 | 0.0 | 0.00 | 0.00 | 0.00 | 44 | 1007.0 |
| 20260901080014 | 18 | 173 | 0.0 | 0.0 | 0.00 | 0.00 | 0.00 | 44 | 1007.0 |
| 20260901074504 | 18 | 173 | 0.0 | 3.2 | 0.00 | 0.00 | 0.00 | 43 | 1007.0 |
| 20260901073002 | 19 | 308 | 0.0 | 0.0 | 0.00 | 0.00 | 0.00 | 42 | 1007.1 |
| 20260901071504 | 19 | 308 | 0.0 | 0.0 | 0.00 | 0.00 | 0.00 | 42 | 1007.0 |
| 20260901070002 | 20 | 308 | 0.0 | 0.0 | 0.00 | 0.00 | 0.00 | 41 | 1007.2 |
| 20260901064504 | 20 | 308 | 0.0 | 0.0 | 0.00 | 0.00 | 0.00 | 41 | 1007.1 |
| 20260901063009 | 20 | 308 | 0.0 | 0.0 | 0.00 | 0.00 | 0.00 | 41 | 1007.2 |
| 20260901061505 | 20 | 308 | 0.0 | 0.0 | 0.00 | 0.00 | 0.00 | 40 | 1007.2 |
| 20260901060009 | 20 | 308 | 0.0 | 0.0 | 0.00 | 0.00 | 0.00 | 40 | 1007.3 |
| 20260901054504 | 21 | 308 | 0.0 | 0.0 | 0.00 | 0.00 | 0.00 | 40 | 1007.4 |
| 20260901053005 | 21 | 308 | 0.0 | 1.6 | 0.00 | 0.00 | 0.00 | 39 | 1007.6 |
| 20260901051503 | 21 | 308 | 0.0 | 0.0 | 0.00 | 0.00 | 0.00 | 39 | 1007.6 |
| 20260901050003 | 21 | 308 | 0.0 | 0.0 | 0.00 | 0.00 | 0.00 | 38 | 1007.7 |
| 20260901044515 | 22 | 308 | 0.0 | 1.6 | 0.00 | 0.00 | 0.00 | 37 | 1007.8 |
| 20260901043003 | 22 | 308 | 0.0 | 0.0 | 0.00 | 0.00 | 0.00 | 37 | 1007.7 |
| 20260901041503 | 22 | 308 | 0.0 | 1.6 | 0.00 | 0.00 | 0.00 | 36 | 1007.7 |
| 20260901040007 | 22 | 308 | 0.0 | 1.6 | 0.00 | 0.00 | 0.00 | 37 | 1007.7 |
| 20260901034504 | 23 | 293 | 0.0 | 1.6 | 0.00 | 0.00 | 0.00 | 36 | 1007.6 |
| 20260901033004 | 23 | 293 | 0.0 | 1.6 | 0.00 | 0.00 | 0.00 | 36 | 1007.5 |
| 20260901031504 | 23 | 293 | 0.0 | 1.6 | 0.00 | 0.00 | 0.00 | 36 | 1007.6 |
| 20260901030004 | 24 | 291 | 0.0 | 0.0 | 0.00 | 0.00 | 0.00 | 35 | 1007.5 |
| 20260901024508 | 25 | 290 | 0.0 | 0.0 | 0.00 | 0.00 | 0.00 | 34 | 1007.5 |
| 20260901023008 | 25 | 290 | 0.0 | 0.0 | 0.00 | 0.00 | 0.00 | 34 | 1007.5 |
| 20260901021509 | 26 | 290 | 0.0 | 1.6 | 0.00 | 0.00 | 0.00 | 33 | 1007.5 |
| 20260901020003 | 26 | 290 | 0.0 | 1.6 | 0.00 | 0.00 | 0.00 | 32 | 1007.6 |
| 20260901014508 | 27 | 290 | 0.0 | 1.6 | 0.00 | 0.00 | 0.00 | 31 | 1007.7 |
| 20260901013009 | 27 | 290 | 0.0 | 1.6 | 0.00 | 0.00 | 0.00 | 30 | 1007.9 |
| 20260901011522 | 27 | 315 | 0.0 | 1.6 | 0.00 | 0.00 | 0.00 | 28 | 1008.0 |
| 20260901010014 | 28 | 325 | 0.0 | 3.2 | 0.00 | 0.00 | 0.00 | 29 | 1008.1 |
| 20260901004512 | 28 | 309 | 0.0 | 1.6 | 0.00 | 0.00 | 0.00 | 29 | 1008.3 |
| 20260901003006 | 28 | 312 | 0.0 | 4.8 | 0.00 | 0.00 | 0.00 | 29 | 1008.3 |
| 20260901001520 | 28 | 309 | 0.0 | 3.2 | 0.00 | 0.00 | 0.00 | 29 | 1008.6 |
| 20260901000019 | 28 | 313 | 0.0 | 1.6 | 0.00 | 0.00 | 0.00 | 29 | 1008.8 |
| 20260831234525 | 28 | 333 | 0.0 | 3.2 | 0.00 | 0.00 | 0.00 | 30 | 1009.1 |
| 20260831233034 | 28 | 297 | 0.0 | 3.2 | 0.00 | 0.00 | 0.00 | 29 | 1009.5 |
| 20260831231514 | 28 | 298 | 0.0 | 3.2 | 0.00 | 0.00 | 0.00 | 29 | 1009.6 |
| 20260831230011 | 28 | 286 | 0.0 | 3.2 | 0.00 | 0.00 | 0.00 | 30 | 1009.9 |
| 20260831224527 | 28 | 312 | 0.0 | 4.8 | 0.00 | 0.00 | 0.00 | 30 | 1010.1 |
| 20260831223033 | 28 | 314 | 0.0 | 4.8 | 0.00 | 0.00 | 0.00 | 30 | 1010.4 |
| 20260831221528 | 28 | 103 | 0.0 | 4.8 | 0.00 | 0.00 | 0.00 | 30 | 1010.6 |
| 20260831220022 | 28 | 35 | 0.0 | 3.2 | 0.00 | 0.00 | 0.00 | 31 | 1010.9 |
| 20260831214506 | 28 | 322 | 0.0 | 3.2 | 0.00 | 0.00 | 0.00 | 32 | 1011.2 |
| 20260831213003 | 28 | 305 | 0.0 | 3.2 | 0.00 | 0.00 | 0.00 | 32 | 1011.5 |
| 20260831211502 | 27 | 318 | 0.0 | 3.2 | 0.00 | 0.00 | 0.00 | 33 | 1011.7 |
| 20260831210002 | 27 | 292 | 1.6 | 4.8 | 0.00 | 0.00 | 0.00 | 31 | 1012.0 |
| 20260831204509 | 27 | 34 | 0.0 | 3.2 | 0.00 | 0.00 | 0.00 | 32 | 1012.2 |
| 20260831203004 | 26 | 292 | 0.0 | 3.2 | 0.00 | 0.00 | 0.00 | 33 | 1012.4 |
| 20260831201504 | 26 | 321 | 0.0 | 3.2 | 0.00 | 0.00 | 0.00 | 34 | 1012.8 |
| 20260831200010 | 26 | 102 | 0.0 | 4.8 | 0.00 | 0.00 | 0.00 | 35 | 1013.1 |
| 20260831194502 | 26 | 350 | 0.0 | 3.2 | 0.00 | 0.00 | 0.00 | 36 | 1013.2 |
| 20260831193004 | 25 | 101 | 0.0 | 1.6 | 0.00 | 0.00 | 0.00 | 37 | 1013.5 |
| 20260831191505 | 25 | 318 | 0.0 | 3.2 | 0.00 | 0.00 | 0.00 | 40 | 1013.7 |
| 20260831190007 | 25 | 297 | 0.0 | 0.0 | 0.00 | 0.00 | 0.00 | 40 | 1014.0 |
| 20260831184513 | 24 | 321 | 0.0 | 0.0 | 0.00 | 0.00 | 0.00 | 44 | 1014.2 |
| 20260831183004 | 23 | 302 | 0.0 | 0.0 | 0.00 | 0.00 | 0.00 | 43 | 1014.4 |
| 20260831181511 | 22 | 306 | 0.0 | 3.2 | 0.00 | 0.00 | 0.00 | 43 | 1014.7 |
| 20260831180009 | 22 | 326 | 0.0 | 1.6 | 0.00 | 0.00 | 0.00 | 44 | 1014.8 |
| 20260831174512 | 21 | 302 | 0.0 | 1.6 | 0.00 | 0.00 | 0.00 | 46 | 1015.0 |
| 20260831173010 | 20 | 321 | 0.0 | 0.0 | 0.00 | 0.00 | 0.00 | 45 | 1015.0 |
| 20260831171505 | 20 | 298 | 0.0 | 3.2 | 0.00 | 0.00 | 0.00 | 47 | 1015.1 |
| 20260831170004 | 19 | 308 | 0.0 | 3.2 | 0.00 | 0.00 | 0.00 | 48 | 1015.3 |
| 20260831164503 | 18 | 46 | 0.0 | 1.6 | 0.00 | 0.00 | 0.00 | 50 | 1015.4 |
| 20260831163016 | 17 | 46 | 0.0 | 0.0 | 0.00 | 0.00 | 0.00 | 52 | 1015.5 |
| 20260831161519 | 16 | 46 | 0.0 | 0.0 | 0.00 | 0.00 | 0.00 | 56 | 1015.6 |
| 20260831160008 | 15 | 92 | 0.0 | 0.0 | 0.00 | 0.00 | 0.00 | 60 | 1015.7 |
| 20260831154522 | 14 | 92 | 0.0 | 0.0 | 0.00 | 0.00 | 0.00 | 63 | 1015.7 |
| 20260831153010 | 13 | 92 | 0.0 | 0.0 | 0.00 | 0.00 | 0.00 | 65 | 1015.7 |
| 20260831151504 | 12 | 96 | 0.0 | 0.0 | 0.00 | 0.00 | 0.00 | 67 | 1015.6 |
| 20260831150028 | 11 | 96 | 0.0 | 0.0 | 0.00 | 0.00 | 0.00 | 69 | 1015.6 |
| 20260831144517 | 11 | 96 | 0.0 | 0.0 | 0.00 | 0.00 | 0.00 | 69 | 1015.5 |
| 20260831143014 | 11 | 96 | 0.0 | 0.0 | 0.00 | 0.00 | 0.00 | 68 | 1015.4 |
| 20260831141517 | 10 | 96 | 0.0 | 0.0 | 0.00 | 0.00 | 0.00 | 67 | 1015.4 |
| 20260831140011 | 11 | 96 | 0.0 | 0.0 | 0.00 | 0.00 | 0.00 | 67 | 1015.2 |
| 20260831134511 | 11 | 96 | 0.0 | 0.0 | 0.00 | 0.00 | 0.00 | 69 | 1015.1 |
| 20260831133012 | 11 | 96 | 0.0 | 0.0 | 0.00 | 0.00 | 0.00 | 66 | 1015.1 |
| 20260831131518 | 11 | 96 | 0.0 | 0.0 | 0.00 | 0.00 | 0.00 | 66 | 1015.0 |
| 20260831130024 | 11 | 96 | 0.0 | 0.0 | 0.00 | 0.00 | 0.00 | 66 | 1015.0 |
| 20260831124504 | 11 | 96 | 0.0 | 0.0 | 0.00 | 0.00 | 0.00 | 64 | 1015.1 |
| 20260831123009 | 12 | 96 | 0.0 | 0.0 | 0.00 | 0.00 | 0.00 | 65 | 1015.0 |
| 20260831121526 | 12 | 96 | 0.0 | 0.0 | 0.00 | 0.00 | 0.00 | 63 | 1015.0 |
| 20260831120019 | 12 | 96 | 0.0 | 0.0 | 0.00 | 0.00 | 0.00 | 61 | 1015.0 |
| 20260831114505 | 12 | 96 | 0.0 | 0.0 | 0.00 | 0.00 | 0.00 | 59 | 1015.1 |
| 20260831113007 | 12 | 96 | 0.0 | 0.0 | 0.00 | 0.00 | 0.00 | 60 | 1014.9 |
| 20260831111503 | 12 | 96 | 0.0 | 0.0 | 0.00 | 0.00 | 0.00 | 61 | 1015.0 |
| 20260831110022 | 12 | 96 | 0.0 | 0.0 | 0.00 | 0.00 | 0.00 | 61 | 1015.1 |
| 20260831104523 | 12 | 96 | 0.0 | 0.0 | 0.00 | 0.00 | 0.00 | 61 | 1014.9 |
| 20260831103004 | 12 | 96 | 0.0 | 0.0 | 0.00 | 0.00 | 0.00 | 60 | 1015.1 |
| 20260831101515 | 12 | 96 | 0.0 | 0.0 | 0.00 | 0.00 | 0.00 | 56 | 1015.1 |
| 20260831100012 | 12 | 96 | 0.0 | 0.0 | 0.00 | 0.00 | 0.00 | 56 | 1015.3 |
| 20260831094505 | 12 | 96 | 0.0 | 0.0 | 0.00 | 0.00 | 0.00 | 53 | 1015.3 |
| 20260831093029 | 13 | 96 | 0.0 | 0.0 | 0.00 | 0.00 | 0.00 | 51 | 1015.4 |